Temp_Advection
nan nan nan nan nan nan nan nan nan nan nan nan nan nan nan nan nan nan nan nan nan nan nan nan nan nan nan nan nan nan nan nan nan nan nan nan nan nan nan nan nan nan nan nan
nan 0 0 0 0 -0 -0 -0 0 0 0 0 -0 0 0 0 0 -0 0 -0 -0 -0 -0 0 0 -0 -0 0 0 -0 -0 -0 -0 0 -0 -0 0 0 -0 -0 0 0 -0 nan
nan 0 0 0 0 -0 -0 -0 -0 0 0 0 0 -0 -0 -0 -0 0 0 0 0 -0 -0 -0 0 -0 -0 -0 -0 -0 -0 -0 -0 -0 -0 0 0 -0 0 0 0 -0 -1 nan
nan 0 0 0 0 0 -0 -0 -0 0 0 0 0 0 -0 -0 -0 -0 0 0 0 -0 -0 0 0 -0 -0 -0 0 0 -0 0 -0 -0 -0 0 0 -0 -0 0 0 -0 -1 nan
nan 0 0 0 0 0 -0 -0 -0 -0 0 1 0 0 0 -0 0 0 -0 -0 0 0 -0 -0 0 0 0 0 -0 -0 -0 0 -0 -0 -1 -0 -0 -0 0 0 -0 -0 0 nan
nan 0 0 0 0 0 -0 -0 -0 -1 -0 0 0 -0 0 0 -0 -0 0 0 -0 0 0 -0 -0 -0 -0 0 0 0 0 0 -0 -0 -0 -0 -0 -0 0 0 0 0 -0 nan
nan 0 0 0 0 0 0 -0 -0 -0 -0 0 0 0 0 0 -0 -0 0 0 -0 0 0 -0 -0 -0 -0 0 -0 -0 0 0 -0 -0 -0 -0 0 -0 0 -0 -0 -0 0 nan
nan 0 0 0 0 0 0 0 0 -1 -0 0 0 0 -0 -0 0 0 -0 -0 0 0 0 -0 -0 -0 -0 0 0 -0 0 -0 -0 -0 -0 -1 -0 -0 -0 0 -0 -0 -0 nan
nan 0 0 0 0 0 0 0 0 -0 -2 0 0 0 0 0 -0 -0 -0 0 0 -0 -0 -0 0 -0 0 -0 -0 -0 0 0 -0 -0 -0 -0 0 -0 -0 -0 0 -0 -1 nan
nan 0 0 0 0 0 0 0 0 -0 -1 -0 0 0 -0 0 0 -0 -0 -0 0 -0 -0 0 0 0 -0 0 0 -0 -0 -0 -0 0 -0 -1 -0 -0 -0 -0 -0 -1 -0 nan
nan 0 0 0 0 0 0 0 0 0 -0 -0 -0 0 -0 -0 -0 -0 0 -0 -0 -0 -0 0 0 0 0 0 -0 -0 0 -0 -0 -0 -0 -0 0 0 0 -0 0 0 -0 nan
nan 0 0 0 0 0 0 0 0 0 0 0 0 0 0 -0 0 -0 -0 0 -0 -0 -0 -0 0 0 0 -0 -0 0 -0 -0 0 -0 -1 -0 1 1 0 0 0 0 0 nan
nan 0 0 0 0 0 0 0 0 0 0 -0 0 0 1 0 0 0 -1 -0 -0 0 -0 -0 0 -0 -0 0 -0 -0 -0 0 0 -0 -0 0 0 0 1 0 0 0 -0 nan
nan 0 0 0 0 0 0 0 0 0 0 -0 0 0 0 0 0 0 0 -0 -0 0 0 -0 -0 -0 0 -0 -1 -0 -0 0 1 0 -0 -0 0 0 -0 -0 0 0 0 nan
nan 0 0 0 0 0 0 0 0 0 0 -0 0 0 0 0 0 0 0 1 0 0 -0 -0 -0 -0 0 0 -0 -1 -1 1 1 -0 -0 0 0 0 0 0 0 0 0 nan
nan 0 0 0 0 0 0 0 0 0 0 -0 -0 0 0 1 1 1 1 1 1 1 -0 -0 -0 -0 0 0 -0 -1 -1 0 0 0 0 0 0 0 0 0 0 0 -0 nan
nan -0 0 0 0 0 0 0 0 0 0 0 0 0 0 1 1 1 0 1 0 0 0 0 -0 0 1 -0 -1 -0 1 0 0 0 0 0 0 0 0 0 -0 -0 -0 nan
nan -0 -0 0 0 0 0 -0 0 0 0 0 0 0 0 0 0 0 0 0 0 0 0 0 0 0 0 -0 -0 0 0 0 -0 -0 0 0 0 0 -0 -0 0 -0 -0 nan
nan -0 0 0 0 0 -0 0 0 0 0 0 -0 0 -0 0 0 0 0 0 0 0 0 0 0 0 -0 0 0 0 0 0 0 0 0 0 -0 0 0 -0 -0 -0 -0 nan
nan 1 0 0 0 0 0 0 0 1 1 0 0 0 0 0 -0 0 0 0 0 0 -0 -0 -0 -0 0 0 0 0 0 0 0 0 0 0 -0 -0 0 -0 -0 -0 -0 nan
nan 0 0 0 1 1 1 0 1 0 0 0 0 0 0 0 -0 -0 0 -0 0 -0 0 -0 -0 -0 0 0 0 0 0 0 0 0 0 0 0 0 0 0 -0 -0 0 nan
nan 1 1 1 0 0 0 0 0 -0 0 0 0 0 0 0 0 -0 0 0 -0 0 -0 -0 -0 0 -0 -0 0 0 0 0 0 -0 -0 -0 0 0 0 0 0 -0 -0 nan
nan 0 -0 -0 0 0 0 -0 -0 -0 0 0 0 0 0 0 0 -0 -0 0 0 0 -0 -0 0 0 -0 0 0 0 0 0 -0 -0 -0 0 0 0 0 0 0 -0 -0 nan
nan 0 0 0 0 -0 -0 -0 -0 -0 0 0 -0 -0 -0 -0 0 0 0 -0 -0 -0 -0 -0 0 0 0 0 0 0 0 -0 -0 0 0 0 0 0 0 0 0 0 -0 nan
nan 0 -0 -0 -0 0 0 0 0 0 0 0 -0 -0 -0 -0 -0 -0 0 -0 -0 -0 -0 -0 0 0 0 0 0 0 -0 0 0 -0 0 0 0 -0 0 0 0 0 1 nan
nan -0 -0 0 0 -0 0 -0 0 0 0 0 -0 -0 -0 0 -0 -0 -0 -0 -0 0 0 0 0 0 0 0 0 0 0 -0 0 0 0 0 0 0 -0 -0 -0 0 1 nan
nan nan nan nan nan nan nan nan nan nan nan nan nan nan nan nan nan nan nan nan nan nan nan nan nan nan nan nan nan nan nan nan nan nan nan nan nan nan nan nan nan nan nan nan
Wind_Speed
7 7 8 10 13 13 12 6 4 10 13 4 2 3 4 4 4 4 4 5 6 4 3 4 3 3 2 2 2 2 4 1 2 1 2 3 2 1 1 2 2 2 4 6
5 6 8 9 13 13 9 5 5 7 12 3 3 4 4 4 3 3 3 3 2 3 4 4 4 3 3 3 1 3 1 0 2 3 4 3 4 2 2 1 1 8 4 4
5 6 6 8 11 11 9 5 3 3 3 3 9 10 5 5 6 5 7 5 7 7 5 3 6 5 3 1 1 1 1 2 4 4 6 4 6 6 6 8 5 8 12 18
5 6 5 5 7 8 8 3 2 3 4 4 11 6 6 11 5 3 3 4 3 5 4 4 4 3 4 2 2 1 2 3 3 7 10 13 11 13 12 14 14 10 14 14
4 5 5 4 5 6 4 4 4 4 4 7 12 1 7 9 5 3 4 7 7 5 5 2 5 3 3 1 4 1 2 1 3 4 8 10 12 14 14 13 12 13 14 15
6 5 5 5 4 4 3 4 8 5 1 3 3 3 7 9 9 5 5 15 10 8 8 5 6 5 5 3 1 2 1 1 1 4 9 13 6 3 4 4 4 8 10 8
8 5 5 5 5 5 5 5 7 4 3 2 3 8 6 12 4 8 9 7 6 4 8 8 8 10 7 5 4 1 4 3 1 3 5 3 3 5 9 13 13 8 9 3
10 8 6 5 6 5 5 8 4 3 3 4 5 10 11 11 10 10 9 4 7 11 4 2 3 2 2 4 7 4 2 3 2 2 4 14 12 4 2 2 11 3 3 8
11 10 8 7 6 6 6 6 6 4 12 5 7 8 12 6 5 5 4 7 12 5 3 2 2 1 1 3 4 4 5 4 2 3 4 4 3 3 4 4 8 3 10 20
13 11 9 8 8 8 8 7 6 5 6 8 11 4 7 7 6 5 5 6 3 3 2 2 2 2 2 2 2 4 2 2 4 6 6 7 6 5 1 3 3 14 12 8
14 12 11 9 9 9 9 9 8 6 4 12 9 9 11 9 8 5 9 6 2 3 3 3 3 2 3 3 2 3 3 2 4 3 4 6 2 2 2 5 12 6 7 7
14 13 12 11 10 9 9 8 8 8 5 8 11 9 10 10 11 11 13 1 6 7 4 2 3 3 1 1 4 4 5 6 4 7 6 6 11 11 7 7 6 7 3 6
14 14 13 11 10 10 10 9 9 8 6 7 9 10 11 11 11 11 7 6 8 7 6 7 2 3 5 4 6 5 5 8 4 6 11 14 14 10 5 5 7 4 6 5
14 14 14 13 11 10 10 10 11 10 6 5 6 11 13 13 11 10 10 8 13 10 8 4 3 3 9 4 6 8 10 8 10 11 15 15 7 2 5 9 8 5 5 7
15 14 14 13 13 11 10 10 12 13 7 4 5 12 12 13 13 12 10 11 14 11 6 4 4 4 4 3 1 8 16 14 5 4 6 9 8 10 11 11 7 5 6 8
17 15 15 14 13 12 9 5 10 12 10 4 3 5 11 15 15 13 14 13 13 9 7 5 5 6 7 3 3 10 12 10 13 10 8 10 8 5 4 5 4 6 8 12
18 16 16 16 15 14 10 4 4 15 13 4 2 3 6 15 13 13 11 14 7 7 5 6 7 7 9 2 5 8 7 3 5 6 6 3 5 4 3 3 5 10 16 19
24 19 16 13 13 14 16 10 4 7 8 6 3 2 2 10 6 6 9 7 7 6 4 3 3 4 5 4 8 3 1 1 2 3 4 4 4 2 3 7 12 16 19 22
25 21 17 16 18 13 15 15 12 8 8 4 5 6 4 11 6 5 6 6 3 4 4 3 5 3 5 5 5 3 2 3 7 7 6 3 0 5 8 12 15 19 21 22
31 32 16 9 10 12 14 11 7 9 9 6 6 5 3 7 7 3 5 3 2 3 2 2 2 2 5 5 4 4 6 10 10 7 4 2 5 9 12 14 15 17 21 28
29 11 12 12 24 16 10 6 6 5 2 6 6 7 4 4 3 3 3 2 2 2 2 2 3 3 8 8 11 11 9 8 6 4 0 4 8 12 14 17 20 25 26 28
10 14 20 18 6 3 4 4 4 4 4 7 7 5 6 6 4 4 3 2 2 2 2 2 3 3 10 13 13 10 9 8 3 3 8 13 16 17 19 23 25 25 27 30
16 5 5 4 2 3 5 6 3 4 7 8 7 5 4 4 3 5 2 4 3 2 3 3 2 9 12 12 10 10 9 2 6 11 15 17 19 18 20 23 23 25 29 30
4 2 4 1 3 2 2 2 3 4 5 13 14 6 2 2 3 2 3 2 2 3 4 5 3 13 12 10 10 8 3 6 14 17 18 19 19 20 23 23 23 26 29 30
3 2 2 2 4 5 6 8 8 8 13 13 9 6 2 2 3 1 3 4 4 4 3 1 9 11 10 10 8 4 10 16 20 21 23 20 19 23 27 25 25 27 29 28
2 3 4 5 4 3 5 9 12 13 16 10 4 3 3 2 3 4 4 3 5 1 1 4 9 8 7 7 9 13 19 22 24 23 20 20 23 25 26 26 27 29 29 30
2 3 8 4 3 7 9 12 11 16 15 3 3 5 2 5 2 3 3 4 0 4 7 6 2 3 8 11 17 23 25 24 21 19 20 23 24 24 25 27 28 30 30 29
Wind_Direction
108 89 85 150 153 150 153 167 147 169 163 147 75 126 111 112 115 85 93 88 91 108 95 90 105 130 61 13 337 24 32 6 265 29 62 333 325 125 87 306 196 224 324 282
120 103 84 122 162 164 159 125 107 158 172 151 117 124 99 76 127 54 105 104 74 117 118 119 121 124 125 30 23 26 56 285 263 179 173 198 248 192 118 79 234 245 245 266
139 120 101 96 149 169 162 138 126 104 180 131 148 144 133 117 68 80 82 107 120 124 103 72 140 141 140 41 73 82 241 237 268 307 333 323 261 268 260 251 251 268 265 281
159 140 131 107 121 147 158 116 101 143 154 152 142 131 147 140 136 94 101 109 163 139 120 109 131 144 159 130 133 86 320 283 289 289 291 289 285 275 266 250 249 263 273 300
186 154 151 149 133 131 129 131 146 93 90 130 134 103 153 153 126 153 126 143 121 122 127 130 169 174 218 200 144 102 25 291 347 288 298 294 293 272 263 256 254 259 274 285
198 177 166 163 157 154 116 111 135 134 27 127 164 142 148 152 133 55 101 134 118 100 106 89 71 82 75 85 172 160 283 172 9 281 316 316 276 238 164 269 207 283 291 334
199 196 179 167 154 150 128 142 139 110 128 188 125 149 135 144 104 129 129 125 112 121 137 109 89 71 74 105 57 351 132 130 74 290 301 272 52 299 288 292 291 286 278 300
200 198 190 177 165 155 138 142 131 126 106 127 121 139 127 112 100 105 127 66 122 138 132 98 32 116 71 77 52 67 228 135 141 258 262 296 293 80 82 279 293 351 353 335
203 197 193 184 169 156 153 147 121 105 122 220 145 131 158 138 124 117 87 114 140 133 83 74 108 230 322 169 146 69 80 99 246 187 251 263 21 56 327 298 266 65 348 337
203 201 197 190 176 167 159 154 139 123 105 160 153 151 162 139 132 120 137 153 140 130 90 102 177 209 328 235 208 194 146 164 232 237 251 270 324 62 359 287 5 334 334 325
207 203 199 197 191 183 174 165 165 155 124 163 175 155 157 153 162 150 152 142 153 88 93 157 192 205 194 214 258 211 250 223 210 199 256 264 109 303 265 316 314 294 295 308
211 210 203 202 199 195 188 184 178 168 154 170 174 173 172 178 188 162 167 165 147 161 112 177 137 187 159 241 253 191 254 206 271 198 241 273 303 297 274 293 271 283 272 309
210 214 211 204 203 202 198 191 187 177 147 138 163 177 176 171 169 169 148 185 171 169 150 149 149 199 167 187 226 252 248 238 244 274 261 272 296 301 251 270 282 295 297 280
212 214 212 206 200 198 197 191 189 188 164 144 190 185 181 184 184 191 204 201 186 176 170 135 147 186 202 211 263 243 256 272 269 278 277 289 276 290 322 304 286 289 258 279
211 211 210 207 200 193 192 190 192 191 191 161 154 182 191 186 189 197 206 207 191 180 158 145 199 195 178 198 308 257 260 265 230 249 276 272 281 298 300 263 259 262 286 302
214 211 206 205 203 196 187 196 213 202 199 164 148 208 196 197 196 196 195 195 208 198 177 187 208 208 195 179 223 275 272 256 263 273 255 254 282 268 222 236 269 298 305 304
212 216 212 207 203 200 188 194 191 201 200 177 154 209 210 203 200 201 203 208 210 219 208 207 221 212 194 165 241 263 258 268 226 234 289 264 202 240 217 279 290 302 303 304
209 214 217 208 214 208 210 195 144 176 180 188 153 207 198 189 186 193 201 196 195 208 218 196 202 174 207 241 241 156 200 239 321 301 237 230 157 182 279 294 303 306 307 310
206 209 211 208 208 202 207 213 220 219 208 205 162 157 209 176 168 161 163 173 160 199 211 195 183 174 216 225 184 156 241 248 215 162 138 138 275 304 307 309 309 307 309 315
202 206 181 204 184 186 191 204 205 213 209 218 189 179 145 177 165 145 136 170 188 200 157 176 207 241 213 192 172 170 175 176 160 153 185 246 294 303 303 303 306 308 312 315
191 166 173 173 154 166 190 177 184 167 171 189 162 179 142 148 162 127 152 152 141 221 150 242 204 228 191 183 170 159 150 154 154 137 156 300 300 303 305 308 311 315 316 315
159 139 130 140 161 145 144 169 149 191 179 169 159 149 120 128 132 119 137 167 155 207 137 228 233 164 156 153 155 162 162 152 149 319 317 314 311 307 307 311 311 312 312 316
129 114 109 142 149 177 182 173 153 154 164 160 151 110 119 119 130 96 178 183 181 151 197 231 244 153 162 168 173 173 169 174 324 319 312 306 302 299 305 306 309 312 315 321
68 82 103 55 99 39 57 2 73 105 142 139 138 95 97 118 84 105 169 68 212 216 226 223 166 172 167 163 164 156 181 297 313 311 306 301 301 303 308 309 311 313 316 318
83 61 77 70 113 98 108 103 103 106 144 137 106 87 124 100 112 87 130 171 228 237 241 114 162 161 162 168 172 229 289 305 308 309 305 300 298 304 308 311 313 317 317 315
75 98 107 124 98 127 131 138 132 146 154 131 114 129 166 120 128 169 197 200 226 165 162 134 147 169 191 211 227 276 296 301 300 300 297 296 303 306 306 307 315 319 319 313
106 69 112 127 122 167 165 161 162 166 162 160 165 181 141 123 171 206 196 224 166 144 133 130 151 249 235 238 283 299 301 298 296 296 296 300 305 306 306 307 316 321 319 314
Height
1508 1509 1508 1508 1510 1512 1515 1516 1518 1521 1523 1526 1528 1526 1529 1534 1536 1537 1538 1540 1541 1543 1549 1551 1553 1556 1558 1562 1561 1559 1562 1560 1558 1555 1558 1558 1555 1555 1555 1562 1566 1564 1568 1553
1508 1508 1509 1508 1510 1512 1514 1516 1519 1521 1522 1526 1531 1532 1534 1536 1536 1538 1538 1541 1543 1546 1550 1555 1555 1558 1563 1563 1561 1560 1561 1560 1559 1556 1559 1557 1555 1557 1560 1563 1567 1566 1571 1548
1507 1508 1509 1509 1510 1511 1514 1516 1520 1523 1523 1523 1523 1528 1533 1536 1539 1540 1541 1544 1545 1546 1550 1552 1556 1558 1562 1563 1562 1563 1563 1560 1560 1557 1556 1557 1559 1558 1559 1560 1566 1557 1552 1543
1507 1508 1509 1510 1510 1511 1513 1514 1518 1519 1523 1525 1524 1527 1531 1534 1537 1541 1541 1544 1543 1545 1553 1554 1556 1557 1560 1563 1564 1564 1563 1563 1562 1560 1557 1555 1558 1557 1555 1554 1555 1560 1548 1543
1507 1507 1509 1510 1511 1511 1513 1514 1517 1520 1524 1525 1525 1530 1531 1533 1538 1538 1540 1541 1545 1545 1549 1551 1555 1555 1558 1559 1564 1564 1566 1565 1569 1565 1560 1555 1556 1551 1549 1549 1547 1548 1547 1545
1507 1507 1508 1509 1510 1512 1512 1513 1515 1518 1526 1527 1526 1528 1531 1533 1536 1542 1541 1543 1546 1551 1552 1554 1556 1559 1560 1562 1563 1565 1567 1568 1571 1568 1566 1561 1558 1547 1544 1544 1547 1546 1547 1541
1505 1507 1508 1509 1510 1512 1512 1513 1515 1517 1526 1527 1526 1529 1531 1534 1536 1538 1545 1547 1548 1555 1554 1556 1558 1561 1563 1564 1567 1568 1575 1572 1578 1573 1571 1561 1545 1543 1544 1545 1542 1540 1540 1543
1504 1506 1507 1508 1510 1511 1513 1513 1516 1517 1528 1527 1529 1530 1532 1537 1539 1543 1546 1549 1551 1554 1557 1557 1564 1561 1568 1569 1570 1569 1570 1573 1580 1577 1568 1551 1541 1541 1543 1544 1542 1542 1543 1545
1503 1505 1507 1508 1510 1512 1513 1515 1516 1517 1520 1527 1527 1530 1533 1535 1540 1546 1549 1551 1552 1554 1557 1561 1567 1558 1561 1558 1565 1574 1573 1574 1572 1576 1574 1560 1539 1544 1545 1544 1540 1545 1548 1549
1501 1504 1506 1508 1509 1512 1513 1515 1517 1519 1520 1524 1526 1529 1532 1535 1538 1542 1549 1552 1554 1554 1560 1564 1564 1559 1564 1558 1566 1568 1573 1576 1572 1569 1568 1552 1542 1546 1546 1550 1547 1547 1548 1547
1501 1503 1505 1507 1509 1511 1513 1515 1517 1519 1520 1524 1526 1528 1529 1533 1536 1539 1547 1551 1553 1557 1562 1567 1565 1567 1560 1561 1556 1559 1558 1562 1568 1570 1567 1559 1546 1545 1550 1544 1544 1545 1545 1543
1499 1501 1503 1506 1508 1510 1512 1515 1516 1518 1521 1524 1526 1527 1529 1531 1533 1536 1540 1543 1544 1548 1554 1562 1565 1564 1569 1561 1558 1555 1554 1551 1549 1554 1543 1538 1541 1544 1543 1542 1542 1541 1541 1540
1496 1500 1502 1504 1506 1509 1511 1513 1516 1518 1520 1524 1526 1527 1529 1530 1532 1534 1538 1541 1542 1544 1545 1552 1557 1560 1557 1562 1556 1552 1546 1548 1549 1548 1539 1537 1540 1539 1540 1539 1539 1538 1538 1537
1494 1498 1501 1503 1505 1507 1510 1512 1514 1517 1519 1520 1524 1525 1527 1528 1530 1533 1534 1536 1538 1541 1544 1546 1551 1554 1550 1552 1545 1544 1542 1542 1541 1540 1537 1537 1536 1538 1537 1537 1535 1535 1535 1534
1492 1496 1499 1501 1504 1506 1509 1510 1512 1515 1518 1518 1521 1523 1525 1526 1528 1530 1532 1534 1535 1537 1541 1544 1546 1545 1547 1547 1548 1539 1537 1533 1539 1536 1534 1535 1535 1535 1535 1534 1533 1533 1533 1532
1491 1494 1497 1500 1502 1505 1508 1511 1512 1512 1514 1518 1521 1522 1522 1523 1525 1527 1529 1531 1532 1534 1535 1537 1537 1536 1539 1542 1540 1534 1531 1531 1531 1531 1531 1531 1531 1531 1532 1533 1533 1533 1532 1530
1488 1492 1495 1497 1500 1503 1507 1508 1508 1509 1513 1515 1517 1518 1518 1519 1521 1524 1526 1527 1529 1531 1532 1532 1532 1533 1535 1535 1532 1528 1529 1530 1530 1529 1529 1530 1530 1530 1531 1530 1529 1529 1528 1526
1485 1490 1493 1496 1498 1501 1504 1505 1506 1508 1511 1513 1515 1516 1518 1517 1518 1521 1522 1524 1526 1527 1528 1528 1529 1530 1530 1527 1522 1524 1526 1528 1527 1527 1528 1529 1529 1529 1529 1529 1528 1526 1523 1521
1482 1487 1491 1494 1495 1497 1499 1504 1506 1508 1512 1508 1509 1511 1514 1513 1515 1517 1520 1521 1524 1524 1523 1525 1527 1525 1521 1517 1518 1520 1522 1525 1526 1526 1526 1527 1528 1528 1528 1526 1524 1522 1518 1514
1476 1482 1484 1486 1487 1492 1498 1502 1505 1505 1504 1504 1503 1506 1508 1511 1513 1516 1519 1520 1520 1519 1522 1523 1522 1517 1516 1516 1516 1519 1520 1522 1524 1525 1526 1526 1526 1526 1524 1522 1519 1515 1512 1507
1466 1467 1476 1481 1484 1490 1493 1494 1497 1498 1499 1498 1499 1502 1503 1508 1510 1511 1515 1516 1518 1514 1517 1518 1513 1507 1509 1512 1514 1517 1519 1521 1522 1523 1524 1524 1522 1521 1518 1516 1513 1510 1507 1503
1463 1465 1472 1479 1481 1483 1486 1487 1492 1492 1491 1494 1496 1499 1500 1505 1507 1509 1515 1515 1517 1511 1520 1519 1507 1502 1507 1510 1513 1515 1518 1519 1520 1521 1520 1520 1518 1516 1514 1511 1508 1505 1501 1496
1464 1467 1471 1474 1479 1478 1478 1478 1483 1485 1488 1491 1493 1497 1500 1504 1506 1509 1513 1512 1512 1518 1517 1505 1499 1503 1506 1510 1512 1514 1516 1518 1519 1518 1517 1515 1513 1511 1509 1506 1504 1499 1494 1490
1466 1468 1471 1473 1475 1478 1479 1480 1480 1484 1485 1489 1493 1498 1502 1505 1506 1510 1509 1517 1516 1511 1508 1499 1499 1502 1505 1508 1511 1513 1515 1516 1516 1514 1512 1510 1507 1505 1503 1500 1496 1492 1487 1482
1471 1472 1472 1476 1479 1481 1483 1483 1484 1485 1488 1492 1496 1500 1504 1505 1507 1509 1513 1514 1508 1503 1495 1497 1499 1503 1506 1508 1510 1511 1512 1511 1510 1508 1505 1503 1502 1499 1495 1492 1489 1485 1481 1476
1473 1475 1478 1480 1482 1483 1483 1484 1486 1487 1491 1494 1497 1500 1501 1502 1503 1505 1502 1502 1496 1495 1498 1499 1501 1503 1505 1507 1507 1508 1507 1505 1503 1501 1499 1497 1495 1492 1488 1485 1482 1477 1474 1469
1474 1477 1477 1480 1480 1482 1483 1484 1486 1489 1492 1495 1496 1496 1495 1504 1502 1501 1502 1497 1494 1496 1498 1500 1501 1503 1503 1504 1503 1502 1499 1497 1496 1494 1493 1491 1489 1486 1482 1478 1474 1471 1467 1462